User: anonymous   Login
Location: Eimen
(51.8766°N, 9.7806°E)
Time: 12:14:03
(UTC+00:00)
Language:

Cosmos 676 Rocket - Orbit

View from above orbital plane
View from above orbital plane
View from above satellite
View from above satellite

Ground track
Ground track

The orbit data is extracted from the following two-line orbital elements,

1  7434U 74071B   24204.22088066  .00000686  00000-0  23735-3 0  9994
2  7434  74.0464 132.2091 0019573 124.9463 235.3532 14.37499052608996
Epoch (UTC): 22 July 2024 05:18:04
Eccentricity: 0.0019573
inclination: 74.0464°
perigee height: 753 km
apogee height: 781 km
right ascension of ascending node: 132.2091°
argument of perigee: 124.9463°
revolutions per day: 14.37499052
mean anomaly at epoch: 235.3532°
orbit number at epoch: 60899

The dashed part of the orbit path shows where the satellite is in the earth's shadow,  

DLR